STARLINK-11255, 60730

Orbit data source: Space-Track

STARLINK-11255, 60730 is a payload satellite owned by SpaceX/Seattle (US) in LEO that was launched on Wed, 28 Aug 2024 UTC via an FALCON 9 launch vehicle from the Air Force Eastern Test Range (AFETR). Payload-class satellites include a variety of spacecraft equipped with specific instruments for various scientific and technological missions. These include communications satellites like Starlink; space stations such as the ISS; scientific satellites like the Hubble; Earth observation satellites from companies like Planet Labs, Umbra, and HawkEye 360; GPS; miniature CubeSats for education and research; and military/defense satellites.

Loading next visibility...
Identifier
60730, 2024-152L
Orbit
LEO
Last TLE update
4 hours ago
Origin
Manufacturer
SpaceX/Seattle
Mission
Operational Commercial Communications
Bus & Motor
STARLINK V2M, Unknown motor
Mass
730 kg wet, ~700 kg dry
Launch date (UTC)
2024-08-28 (10 months ago)
Launch vehicle
FALCON 9
Launch site
Air Force Eastern Test Range (AFETR)
Object type
Payload
Rocket body
Debris
Shape & HBR
Box + 2 Pan, 29 m
Radar Cross Section
36.964 m², Large (>1 m²)

Expand to show TLE details & history

TLE from 4 hours ago
0 STARLINK-11255
1 60730U 24152L   25182.22879458 -.00001740  00000-0 -95162-5 0  9995
2 60730  53.1594 275.6168 0001091  84.8665 275.2478 15.69692567 49350
Epoch: 2025-07-01T05:29Z
TLE epoch observation values (Epoch: 2025-07-01T05:29:27.851Z)
Latitude
0.00002°
Longitude
-86.27649°
Altitude
360.624 km
Speed
7.694 km/s
True Right ascension
18h 22m 28s
True Declination
0° 00' 00"
Sunlit
Object was in full shadow at epoch
Visualization orbit readout
Latitude
3.57627°
Longitude
90.27395°
Altitude
360.3 km
Speed
7.695 km/s
Apparent Right ascension
07h 18m 28s
Apparent Declination
-18° 33' 38"
Sunlit
Object is in daylight
Visualization observer readout
Local Sidereal Time
20:55:44
Azimuth
51.528° ENE
Elevation
-60.093°
Doppler factor
1
Orbital elements
Apogee altitude
360.773 km
Perigee altitude
359.302 km
Semi-major axis
6,738.174 km
Eccentricity
0.00011
Inclination
53.1594°
RAAN
275.6168°
Arg. of periapsis
84.8665°
True anomaly
Unknown
Mean anomaly
275.2478°
Eccentric anomaly
Unknown
Mean motion
3.92401 °/min
Orbital period
91.74 mins
BSTAR
-0.0000095162
Loading maneuver chart data...
Loading SW <> Apogee altitude chart data...
Loading historical data...
Loading historical data...
Loading historical data...
Loading historical data...
Loading historical data...
Loading historical data...
Loading historical data...

STARLINK-11255 Visibility forecast

Observer location: undefined°, undefined°

Span
Click to sort rows by Start time (UTC) header in descending order
Start Az.
Max El. time (UTC)
Max El. Az.
Max El.
End time (UTC)
End Az.
4 mins2025-07-01 10:18:29.177Z280.205° WNW2025-07-01 10:20:29.177Z324.492° NNW19.531°2025-07-01 10:22:29.177Z15.942° NNE
4 mins2025-07-02 09:12:29.177Z254.685° W2025-07-02 09:14:29.177Z349.687° N36.032°2025-07-02 09:16:29.177Z37.786° NE
|